Norton, KS

6:00 PM CDT on July 22, 2017 (GMT -0500)
by sebelius lake | | Change Station

Elev 2418 ft 39.83 °N, 99.97 °W | Updated 11 minutes ago

Partly Cloudy
Partly Cloudy
85.6 °F
Feels Like 88 °F
N
12.0
Wind Variable Wind from NNW
Gusts 22.0 mph

Today
High -- | Low -- °F
--% Chance of Precip.
Yesterday
High -- | Low -- °F
Precip. -- in
Pressure 29.91 in
Visibility 8.0 miles
Clouds Scattered Clouds 7500 ft
Overcast 10000 ft
Heat Index 88 °F
Dew Point 65 °F
Humidity 51%
Rainfall 0.00 in
Snow Depth Not available.
6:29 AM 9:01 PM
Waning Crescent, 0% visible
METAR KHLC 222253Z AUTO 03017G23KT 8SM TS SCT075 OVC100 30/17 A2998 RMK AO2 PK WND 01036/2155 LTG DSNT ALQDS TSE07B20 SLP127 T03000167
Pressure 29.91 in
Visibility 8.0 miles
Clouds Scattered Clouds 7500 ft
Overcast 10000 ft
Heat Index 88 °F
Dew Point 65 °F
Humidity 51%
Rainfall 0.00 in
Snow Depth Not available.
6:29 AM 9:01 PM
Waning Crescent, 0% visible
METAR KHLC 222253Z AUTO 03017G23KT 8SM TS SCT075 OVC100 30/17 A2998 RMK AO2 PK WND 01036/2155 LTG DSNT ALQDS TSE07B20 SLP127 T03000167

Get Severe Weather Alerts

Thanks for signing up!

Be on the lookout for a verification email in your inbox.

You'll start receiving the daily forecast at 6 AM.

×

10-Day Weather Forecast

Almanac

Astronomy

Jul. 22, 2017 Rise Set
Actual Time
Civil Twilight
Nautical Twilight
Astronomical Twilight
Moon
Length of Visible Light
Length of Day
Tomorrow will be .
, % of the Moon is Illuminated

Today's Extremes

State Highs State Lows

Community

WunderPhotos

Category 6

Welcome to Category 6. This is the collective home for Weather Underground's featured writeups by Dr. Jeff Masters (right), Bob Henson (left), Chris Burt, and other regular contributors.

Nearby

Air Quality

  Air Quality AQ Index Pollutant
Not available.

Snow Depth

Station Depth Elevation

Earthquake Activity

City Distance Mag. Time & Date
Minimum magnitude displayed is 2.5.

Coastal Water Temperatures

Place Temperature

Stations

Nearby Weather Stations

Station Location Temp. Windchill Dew Point Humidity Wind Precip. Elev Updated Type
                   

Watches & Warnings

There are currently no watches in effect.